Probability
1 1 0 0 0 0 0 0 0 0 0 0 0 0 0 0 0 0 0 0 0 0 2 5 4 2 0 0 0 0 1 2 2 1 1 2 3 3 1 0 0 0 0 0 1 2 2 2 1
1 0 0 0 0 0 0 0 0 0 0 0 0 0 0 0 0 0 0 0 0 1 3 5 5 3 1 1 0 0 0 1 2 2 1 1 2 2 1 0 0 0 0 0 0 1 1 1 0
0 0 0 0 0 0 0 0 0 0 0 0 0 0 0 0 0 0 0 0 1 3 4 5 6 5 4 4 3 1 0 1 2 2 1 1 2 1 1 0 0 0 0 0 0 0 0 0 0
0 0 0 0 0 0 0 0 0 0 0 0 0 0 0 0 0 0 1 2 2 4 4 5 7 7 6 7 6 3 0 0 1 2 2 2 2 1 2 1 0 0 0 0 1 1 0 0 0
0 0 0 0 0 0 0 0 0 0 0 0 0 0 0 0 0 1 2 2 3 5 5 5 8 8 7 7 8 4 1 0 0 1 2 3 2 2 2 1 0 0 0 1 2 1 0 0 0
0 0 0 0 0 0 0 0 0 0 0 0 0 0 0 0 0 1 2 2 4 6 6 7 8 8 6 6 7 5 2 0 0 1 2 3 3 2 1 1 0 0 0 1 1 1 0 0 0
0 0 0 0 0 0 0 0 0 0 0 0 0 0 0 0 0 1 2 3 4 7 8 9 9 8 6 4 5 4 1 0 0 1 2 2 2 1 0 0 0 0 0 0 0 0 0 0 0
0 0 0 0 0 0 0 0 0 0 0 0 0 0 0 0 0 1 4 5 5 7 8 9 9 8 6 3 2 1 0 0 0 0 1 1 1 1 0 0 0 1 0 0 0 0 0 0 0
0 0 0 0 0 0 0 0 0 0 0 0 0 0 0 0 0 1 4 5 6 7 8 9 10 8 5 3 2 1 0 0 0 0 0 0 0 1 0 0 0 0 0 0 0 0 0 0 0
0 0 0 0 0 0 0 0 0 0 0 0 0 0 0 0 0 1 3 4 5 6 7 8 9 8 5 3 3 2 1 0 0 0 0 0 0 0 0 0 0 0 0 0 0 0 0 0 0
0 0 0 0 0 0 0 0 0 0 0 0 0 0 0 0 0 1 2 3 4 6 6 7 9 7 5 3 4 4 2 1 0 0 0 0 0 0 0 0 0 0 0 0 0 0 0 0 0
0 0 0 0 0 0 0 0 0 0 0 0 0 0 0 0 0 0 1 2 4 5 5 7 8 7 4 3 3 3 2 1 0 0 0 0 0 0 0 0 0 0 0 0 0 0 0 0 0
0 0 0 0 0 0 0 0 0 0 0 0 0 0 0 0 0 0 0 1 3 4 6 7 8 7 4 3 2 2 1 0 0 0 0 0 0 0 0 0 0 0 0 0 0 0 0 0 0
0 0 0 0 0 0 0 0 0 0 0 0 0 0 0 0 0 0 0 1 2 4 6 7 8 8 6 3 1 1 0 0 0 0 0 0 0 0 0 0 0 0 0 0 0 0 0 0 0
0 0 0 0 0 0 0 0 0 0 0 0 0 0 0 0 0 0 0 0 1 3 5 7 9 10 8 3 0 0 0 0 0 0 0 0 0 0 0 0 0 0 0 0 0 0 0 0 0
0 0 0 0 0 0 0 0 0 0 0 0 0 0 0 0 0 0 0 0 0 1 3 6 9 10 8 4 1 0 0 0 0 0 0 0 0 0 0 0 0 0 0 0 0 0 0 0 0
0 0 0 0 0 0 0 0 0 0 0 0 0 0 0 0 0 0 0 0 0 0 2 5 7 9 8 5 2 0 0 0 0 0 0 0 0 0 0 0 0 0 0 0 0 0 0 0 0
0 0 0 0 0 0 0 0 0 0 0 0 0 0 0 0 0 0 0 0 0 0 0 2 4 6 7 5 3 1 0 0 0 0 0 0 0 0 0 0 0 0 0 0 0 0 0 0 0
0 0 0 0 0 0 0 0 0 0 0 0 0 0 0 0 0 0 0 0 0 0 0 0 1 2 4 4 2 1 0 0 0 0 0 0 0 0 1 2 1 1 0 0 0 0 0 0 0
0 0 0 0 0 0 0 0 0 0 0 0 0 0 0 0 0 0 0 0 0 0 0 0 0 1 2 2 1 0 0 0 0 0 0 0 0 1 2 3 3 2 1 0 0 0 0 0 0
0 0 0 0 0 0 0 0 0 0 0 0 0 0 0 0 0 0 0 0 0 0 0 0 0 0 1 1 1 0 0 0 0 0 0 0 1 2 3 3 3 2 1 0 0 0 0 0 0
0 0 0 0 0 0 0 0 0 0 0 0 0 0 0 1 1 1 0 0 0 0 0 0 0 0 0 0 0 0 0 0 0 0 0 0 1 2 2 3 3 2 1 0 0 0 0 0 0
0 0 0 0 0 0 0 0 0 0 0 0 0 0 0 1 2 2 1 1 1 0 0 0 0 0 0 0 0 0 0 0 0 0 0 0 0 1 1 1 2 2 1 0 0 0 0 0 0
0 0 0 0 0 0 0 0 0 0 0 0 0 0 0 0 2 3 3 2 2 1 0 0 0 0 0 0 0 0 0 0 0 0 0 0 0 0 0 0 1 1 0 0 0 0 0 0 0
0 0 0 0 0 0 0 0 0 0 0 0 0 0 0 1 2 3 3 3 3 1 0 0 0 0 0 0 0 0 0 0 0 0 0 0 0 0 0 0 0 0 0 0 0 0 0 0 0
0 0 0 0 0 0 0 0 0 0 0 0 0 0 0 2 3 3 3 3 3 2 1 0 0 0 0 0 0 0 0 0 0 0 0 0 0 0 0 0 0 0 0 0 0 0 0 0 0
0 0 0 0 0 0 0 0 0 0 0 0 0 0 0 1 3 3 3 3 3 3 2 1 0 0 0 0 0 0 0 0 0 0 0 0 0 0 0 0 0 0 0 0 0 0 0 0 0
0 0 0 0 0 0 0 0 0 0 0 0 0 0 0 1 2 3 3 3 3 3 3 2 1 0 0 0 0 0 0 0 0 0 0 0 0 0 0 0 0 0 0 0 0 0 0 0 0
0 0 0 0 0 0 0 0 0 0 0 0 0 0 0 0 1 2 3 3 3 3 3 3 2 1 0 0 0 0 0 0 0 0 0 0 0 0 0 0 0 0 0 0 0 0 0 0 0
0 0 0 0 0 0 0 0 0 0 0 0 0 0 0 0 0 1 3 3 3 3 3 3 2 1 0 0 0 0 0 0 0 0 0 0 0 0 0 0 0 0 0 0 0 0 0 0 0
Wind_Speed
9 5 2 4 5 3 3 4 2 1 1 1 2 4 5 4 3 3 2 4 6 7 5 5 7 10 11 11 11 11 10 10 11 11 11 11 11 10 10 10 10 10 10 11 12 12 12 12 12
3 3 4 4 4 2 4 3 3 2 3 2 3 4 4 3 2 4 2 3 7 7 5 5 8 9 11 11 11 10 10 10 11 11 11 10 10 10 10 10 10 10 10 11 11 12 12 11 11
3 2 4 4 3 5 4 2 3 1 0 2 3 4 3 2 2 2 2 5 7 6 4 5 8 10 11 11 11 10 10 10 10 10 10 10 10 10 9 9 9 10 10 11 11 11 11 10 11
2 4 4 3 4 4 4 3 2 2 1 2 4 3 2 2 1 3 5 6 7 5 4 5 9 10 10 10 10 10 10 10 10 10 10 9 9 9 9 9 9 9 10 10 10 10 10 10 10
4 4 3 1 4 3 2 2 2 1 1 1 3 3 1 3 4 6 6 6 7 5 4 5 8 10 10 10 10 10 9 9 9 9 9 8 8 8 8 8 8 9 9 9 10 10 10 10 10
4 4 3 3 4 2 2 2 1 1 0 0 3 3 1 1 4 4 5 6 6 5 4 5 8 9 9 9 9 9 9 8 8 8 8 7 8 8 7 7 8 8 8 8 9 9 9 9 9
3 3 3 4 3 2 3 2 1 2 1 1 2 4 1 0 1 3 4 6 6 5 5 4 4 6 8 9 8 8 8 8 8 8 8 8 7 7 7 7 7 8 8 8 8 9 8 9 9
3 3 1 2 3 3 2 1 2 1 1 1 2 5 3 3 2 4 4 5 5 4 4 4 4 4 4 5 8 8 7 7 7 7 7 7 6 6 6 6 7 7 8 8 8 8 8 8 8
3 3 2 3 3 3 0 1 2 2 3 3 2 1 2 5 6 5 4 3 3 3 3 4 4 4 4 4 5 6 6 6 6 5 7 5 3 3 3 5 6 7 7 7 8 8 8 7 8
4 3 4 2 2 1 1 0 1 2 2 2 2 3 4 5 5 5 4 4 4 4 4 4 4 4 4 3 3 3 3 3 3 3 3 3 2 2 4 5 6 6 6 6 7 7 6 6 4
3 4 2 1 1 0 1 1 0 2 2 3 3 3 4 4 4 4 3 3 4 4 3 3 4 4 4 3 3 2 2 2 2 3 3 3 3 2 3 2 3 3 4 3 4 4 3 3 2
2 1 1 1 2 1 0 0 1 2 4 2 3 6 6 5 5 5 4 3 3 3 3 3 4 4 4 4 3 2 2 2 2 2 3 3 2 2 2 1 1 2 1 2 2 2 2 3 3
1 2 1 1 1 1 1 1 1 3 3 2 4 4 5 5 5 4 3 2 3 3 4 4 4 4 4 4 3 3 3 2 2 2 2 3 2 2 2 2 2 1 1 1 1 1 2 3 2
1 1 2 2 2 2 0 2 1 6 2 2 3 3 4 4 4 3 2 3 3 4 4 4 4 5 5 4 4 3 3 2 2 2 2 3 2 2 2 2 2 1 1 1 1 2 2 2 2
0 2 4 3 2 2 1 4 5 6 1 2 2 3 3 3 3 3 4 4 4 4 4 4 5 4 4 4 4 3 3 3 2 2 2 3 3 3 2 2 2 1 1 1 2 2 2 2 2
1 1 2 3 2 1 3 7 6 2 3 3 4 3 2 2 3 3 2 2 2 2 3 4 3 4 4 4 4 3 2 3 2 2 2 2 3 3 2 2 1 1 2 2 2 2 2 2 1
1 1 3 3 1 2 3 7 5 2 3 4 4 3 3 2 2 2 2 2 2 2 2 3 3 3 3 3 3 3 2 2 2 2 2 2 3 3 3 2 1 1 1 1 2 2 1 2 1
3 3 3 3 2 2 3 7 6 2 2 4 3 3 2 3 4 2 1 2 2 2 3 2 2 2 3 2 2 2 2 1 1 2 2 3 2 3 3 2 1 2 2 1 2 2 1 1 1
2 2 4 4 2 1 5 8 8 3 2 4 4 3 3 4 3 1 2 2 2 3 3 3 3 2 2 2 2 2 2 1 1 1 2 2 2 3 3 3 2 2 2 2 2 2 2 1 1
2 3 4 3 1 2 4 8 7 4 4 5 5 5 4 2 0 1 2 2 2 3 2 2 2 2 2 1 1 2 2 1 1 1 1 2 2 2 3 3 3 2 2 2 2 2 1 1 1
4 4 4 4 3 2 3 7 4 3 2 1 2 3 3 3 2 2 2 1 2 2 3 3 2 2 1 2 2 2 2 2 1 0 0 0 1 2 2 3 3 3 2 2 2 2 3 2 1
6 4 4 2 1 3 0 6 6 4 3 2 3 2 2 2 2 2 2 2 2 2 2 2 2 2 2 2 3 3 2 1 1 1 0 0 1 1 1 2 2 3 2 2 2 2 1 3 2
4 1 2 2 2 2 1 3 9 2 3 5 5 4 3 2 3 3 3 3 2 1 2 2 2 2 2 2 2 2 1 1 1 1 1 0 0 1 1 1 1 2 2 2 2 2 2 2 2
1 2 3 2 2 4 5 5 9 3 5 4 3 3 3 2 2 2 2 2 2 2 2 2 2 2 1 2 2 2 2 1 2 1 1 0 0 0 0 1 1 1 1 2 2 2 2 2 2
2 4 3 4 2 6 2 4 10 5 4 3 3 4 3 2 2 1 1 2 2 2 2 2 2 1 1 1 1 1 1 2 3 2 2 1 0 1 1 1 1 1 1 1 1 1 2 2 3
3 5 6 5 5 5 2 7 7 3 2 2 2 2 1 2 2 2 3 3 2 2 2 2 2 1 1 1 1 0 1 1 1 1 1 2 1 1 1 1 1 1 1 1 1 1 1 1 2
4 4 3 3 0 2 6 6 7 2 2 1 1 0 1 2 3 2 2 2 2 2 2 2 2 1 1 1 1 1 1 1 0 1 1 1 1 1 1 1 0 1 1 1 1 1 1 1 1
2 4 3 4 3 4 6 6 6 3 4 3 2 2 3 2 1 2 2 2 2 2 2 1 2 2 1 1 1 1 1 1 1 1 1 1 1 1 1 1 1 1 1 1 1 0 1 1 1
3 3 3 3 4 5 5 8 6 6 5 4 4 4 3 3 3 3 3 2 2 1 1 2 1 1 1 1 1 1 1 1 0 1 1 1 1 1 1 1 1 1 1 1 1 1 1 2 2
5 6 7 6 5 4 4 10 3 4 4 4 4 3 2 2 2 2 2 2 2 2 2 2 2 2 2 2 1 1 1 1 1 1 1 1 1 1 1 1 1 2 2 2 2 2 2 2 2
Wind_Direction
331 339 47 55 60 59 239 248 208 162 142 176 110 101 114 116 142 159 137 117 125 139 146 148 136 127 121 116 112 108 106 105 104 100 96 93 90 89 87 87 86 90 94 92 92 89 86 85 82
325 1 50 62 100 170 252 240 197 215 177 131 76 83 86 88 80 108 115 124 131 138 142 143 130 126 124 121 115 111 108 107 107 103 99 95 93 91 89 88 89 90 92 93 91 90 88 84 81
318 60 83 85 148 192 214 221 193 200 209 94 71 54 88 122 115 143 147 131 124 131 137 142 128 126 125 122 118 113 111 110 108 107 103 99 95 90 87 89 90 92 92 92 92 91 88 84 79
52 50 61 91 210 224 211 215 178 148 34 55 102 79 66 27 134 146 129 126 122 126 131 144 132 130 127 123 120 116 113 112 111 110 106 101 97 93 91 92 90 93 95 93 91 91 87 83 80
61 80 76 239 234 248 243 220 180 135 143 67 104 112 69 356 67 108 116 117 123 127 129 139 132 129 126 122 118 116 113 112 114 113 110 104 98 94 91 92 91 91 95 93 91 88 88 83 80
58 74 119 222 236 247 263 255 183 132 90 62 102 112 143 43 77 105 115 116 118 125 127 128 123 121 119 117 116 113 110 109 111 111 111 104 101 98 91 89 90 91 96 95 92 88 82 82 81
105 113 183 208 219 241 259 302 160 155 124 213 136 123 170 217 95 104 114 117 116 121 129 130 126 119 118 116 114 109 108 107 106 106 104 101 98 93 88 85 89 90 95 98 94 88 81 76 77
122 112 194 224 203 235 269 12 30 75 144 18 96 139 192 207 139 101 106 113 116 120 133 140 126 117 120 122 117 114 111 112 108 102 99 97 94 89 84 83 88 89 93 94 93 89 81 74 70
89 90 213 224 199 227 291 68 356 18 73 33 34 113 171 136 123 108 104 109 125 129 140 146 137 130 130 127 123 121 116 117 111 100 95 90 79 83 82 84 88 88 89 90 91 89 80 69 64
91 164 221 235 205 202 328 119 215 53 37 22 15 25 86 118 126 131 141 155 160 167 165 155 150 146 141 134 124 123 118 119 108 99 94 82 80 87 89 87 84 82 82 85 88 90 76 65 58
134 186 212 288 308 318 325 336 0 138 233 216 207 169 138 130 138 155 169 171 179 175 163 161 157 151 146 141 133 122 120 121 117 114 109 99 90 86 77 78 71 71 70 61 71 70 65 64 66
150 225 196 265 319 336 230 269 324 218 232 221 178 155 149 160 176 185 187 188 176 162 175 171 159 156 152 143 139 138 131 132 134 133 124 119 111 107 109 99 91 81 75 70 59 62 71 75 69
225 260 263 264 305 315 4 316 281 280 263 118 109 125 157 175 197 204 197 188 173 178 185 174 166 166 160 148 149 145 144 140 137 132 130 131 134 137 133 129 116 110 103 106 94 80 81 79 69
208 275 294 278 262 276 119 310 310 270 246 131 136 175 194 191 195 196 202 204 199 193 190 178 175 174 163 158 157 157 152 146 138 142 140 135 137 140 144 139 133 130 129 132 127 114 102 81 78
99 2 326 286 231 239 101 310 249 251 175 161 192 202 197 204 195 202 211 211 207 198 185 179 178 170 166 164 163 157 155 151 150 154 148 141 136 139 146 142 144 157 151 129 106 97 97 91 76
43 31 306 292 195 187 144 263 273 240 181 209 218 215 213 220 215 220 209 207 208 183 175 175 166 165 169 168 163 157 154 154 159 157 153 152 150 147 142 138 151 162 146 136 126 117 110 103 96
21 264 251 288 218 160 182 254 283 264 199 222 223 221 218 243 267 247 218 193 172 155 156 159 158 162 167 162 158 151 147 155 159 156 157 164 160 153 145 139 143 140 132 132 137 112 125 131 127
221 226 246 243 250 154 224 258 281 265 216 225 223 223 224 229 245 229 194 171 153 130 120 121 134 158 154 135 125 134 132 148 146 154 163 163 160 152 139 131 127 129 121 112 127 126 116 137 149
176 210 250 253 253 212 248 264 277 265 236 238 233 226 232 240 252 146 140 136 116 106 114 122 115 99 122 143 162 171 180 168 154 158 155 159 158 155 148 144 141 138 140 145 133 133 130 125 123
235 261 267 287 313 238 277 278 275 247 229 219 216 219 225 237 10 94 99 105 124 132 135 130 136 135 133 153 180 176 164 156 154 139 135 142 151 155 152 150 153 150 138 123 121 121 132 146 132
237 228 242 260 323 314 313 305 293 279 259 263 238 223 221 206 194 168 145 138 126 137 156 159 151 138 126 100 82 71 72 65 67 100 176 183 158 156 162 161 156 155 152 154 157 153 150 171 204
243 231 229 239 330 294 342 291 284 267 285 275 255 237 229 226 192 174 164 160 173 182 163 147 135 119 110 106 113 116 122 141 204 204 202 196 166 146 139 148 156 159 161 161 176 168 169 162 185
226 224 208 212 203 291 270 245 284 288 265 257 244 235 230 216 189 178 180 183 169 139 128 130 118 106 104 105 120 129 106 104 99 75 81 136 82 94 112 136 148 163 163 167 175 171 169 177 187
176 61 46 53 86 270 228 204 278 239 232 244 240 233 223 210 196 184 162 124 98 83 86 91 105 95 99 110 113 133 125 110 115 115 126 341 330 267 134 138 158 160 156 175 188 183 184 193 193
94 96 32 357 342 254 222 210 255 251 228 207 221 228 216 201 185 169 137 136 138 132 131 123 126 113 105 120 126 146 150 159 168 175 181 182 250 292 256 205 196 176 173 175 175 181 204 206 201
195 157 166 200 232 275 279 236 256 247 262 252 239 214 190 195 199 190 189 183 177 168 160 154 161 163 152 162 182 156 149 168 192 193 184 197 222 235 256 236 207 189 176 171 177 184 216 215 216
164 203 186 144 114 278 265 275 296 276 304 308 301 231 233 221 209 201 192 182 177 175 178 178 175 175 196 198 184 166 178 168 182 217 201 209 230 235 208 203 213 228 197 187 187 198 217 217 229
159 150 116 147 180 250 278 262 247 244 248 255 250 240 249 247 221 207 203 198 191 184 180 165 173 191 202 204 203 200 215 212 196 188 227 228 231 222 194 209 211 237 228 209 191 208 230 217 235
159 167 170 163 178 187 258 265 224 205 212 221 238 233 227 221 216 212 213 208 185 164 166 173 184 201 216 223 228 202 207 223 212 223 247 239 231 212 210 216 217 221 233 217 202 223 224 227 248
192 189 167 177 222 207 230 265 236 207 217 218 235 242 228 218 215 212 209 198 192 193 197 198 203 217 227 223 219 227 212 200 218 246 263 248 230 220 220 227 234 233 233 224 212 226 231 230 244